Location: Kerb�bon
(47.7970°N, 3.3487°W)
Time: 12:40:41
(UTC+00:00)

Okean 1 - Pass Details

Date: 12 May 2021
Orbit: 537 x 555 km, 82.5° (Epoch: 18 June)

Event Time Altitude Azimuth Distance (km) Brightness Sun altitude
Exits shadow 22:24:08 36° 95° (E) 872 4.0 -19.7°
Maximum altitude 22:24:13 37° 92° (E) 871 4.1 -19.7°
Drops below altitude 10° 22:27:54 10° 25° (NNE) 1,824 6.5 -20.0°
Sets 22:30:10 0° 17° (NNE) 2,719 7.6 -20.2°
